Time,TemperatureF,DewpointF,PressureIn,WindDirection,WindDirectionDegrees,WindSpeedMPH,WindSpeedGustMPH,Humidity,HourlyPrecipIn,Conditions,Clouds,dailyrainin,SoftwareType,DateUTC
2013-04-12 00:00:00,62.7,49.5,29.87,ENE,68,0.0,0.0,62,0.00,,,0.00,WUHU216HW,2013-04-12 04:00:00,
2013-04-12 00:01:00,62.7,49.5,29.87,ENE,68,0.0,0.0,62,0.00,,,0.00,WUHU216HW,2013-04-12 04:01:00,
2013-04-12 00:03:00,62.9,49.7,29.87,North,0,3.1,3.1,62,0.00,,,0.00,WUHU216HW,2013-04-12 04:03:00,
2013-04-12 00:04:00,62.9,49.7,29.87,West,270,0.0,3.1,62,0.00,,,0.00,WUHU216HW,2013-04-12 04:04:00,
2013-04-12 00:05:00,62.9,49.7,29.87,West,270,0.0,3.1,62,0.00,,,0.00,WUHU216HW,2013-04-12 04:05:00,
2013-04-12 00:06:00,63.1,49.8,29.87,WNW,293,0.0,3.1,62,0.00,,,0.00,WUHU216HW,2013-04-12 04:06:00,
2013-04-12 00:08:00,62.9,48.8,29.87,North,0,0.0,3.1,60,0.00,,,0.00,WUHU216HW,2013-04-12 04:08:00,
2013-04-12 00:09:00,62.9,48.8,29.87,North,0,0.0,3.1,60,0.00,,,0.00,WUHU216HW,2013-04-12 04:09:00,
2013-04-12 00:15:00,70.8,65.0,29.53,SSE,158,0.0,8.2,82,0.00,,,0.00,WUHU216HW,2013-04-12 04:15:00,
2013-04-12 00:20:00,70.8,65.0,29.53,SSE,158,0.0,10.2,82,0.00,,,0.00,WUHU216HW,2013-04-12 04:20:00,
2013-04-12 00:25:00,70.7,65.2,29.53,ESE,113,4.9,10.2,83,0.00,,,0.00,WUHU216HW,2013-04-12 04:25:00,
2013-04-12 00:30:00,70.7,65.2,29.53,SW,225,4.6,6.2,83,0.00,,,0.00,WUHU216HW,2013-04-12 04:30:00,
2013-04-12 00:36:00,70.7,65.2,29.52,South,180,4.0,5.5,83,0.00,,,0.00,WUHU216HW,2013-04-12 04:36:00,
2013-04-12 00:41:00,70.7,65.2,29.52,SSE,158,0.0,4.6,83,0.00,,,0.00,WUHU216HW,2013-04-12 04:41:00,
2013-04-12 00:43:00,63.8,50.1,29.85,North,0,0.0,0.0,61,0.00,,,0.00,WUHU216HW,2013-04-12 04:43:00,
2013-04-12 00:44:00,63.8,50.1,29.85,North,0,0.0,0.0,61,0.00,,,0.00,WUHU216HW,2013-04-12 04:44:00,
2013-04-12 00:47:00,70.5,65.0,29.52,SSW,203,1.7,4.2,83,0.00,,,0.00,WUHU216HW,2013-04-12 04:47:00,
2013-04-12 00:48:00,64.0,50.2,29.85,North,0,0.0,0.0,61,0.00,,,0.00,WUHU216HW,2013-04-12 04:48:00,
2013-04-12 00:50:00,64.0,50.2,29.85,North,0,0.0,0.0,61,0.00,,,0.00,WUHU216HW,2013-04-12 04:50:00,
2013-04-12 00:51:00,63.8,50.1,29.85,North,0,0.0,0.0,61,0.00,,,0.00,WUHU216HW,2013-04-12 04:51:00,
2013-04-12 00:52:00,70.5,65.0,29.52,South,180,3.3,9.6,83,0.00,,,0.00,WUHU216HW,2013-04-12 04:52:00,
2013-04-12 00:54:00,63.8,50.1,29.85,NE,45,0.0,0.0,61,0.00,,,0.00,WUHU216HW,2013-04-12 04:54:00,
2013-04-12 00:55:00,63.8,50.1,29.85,NE,45,0.0,0.0,61,0.00,,,0.00,WUHU216HW,2013-04-12 04:55:00,
2013-04-12 00:56:00,64.0,50.2,29.85,North,0,0.0,0.0,61,0.00,,,0.00,WUHU216HW,2013-04-12 04:56:00,
2013-04-12 00:57:00,70.5,65.0,29.51,South,180,5.8,9.6,83,0.00,,,0.00,WUHU216HW,2013-04-12 04:57:00,
2013-04-12 00:58:00,64.0,50.2,29.85,North,0,0.0,0.0,60,0.00,,,0.00,WUHU216HW,2013-04-12 04:58:00,
2013-04-12 00:59:00,64.0,50.2,29.85,North,0,0.0,0.0,60,0.00,,,0.00,WUHU216HW,2013-04-12 04:59:00,
2013-04-12 01:00:00,64.0,50.2,29.84,North,0,0.0,0.0,60,0.00,,,0.00,WUHU216HW,2013-04-12 05:00:00,
2013-04-12 01:02:00,64.0,50.2,29.84,NNE,23,0.0,0.0,60,0.00,,,0.00,WUHU216HW,2013-04-12 05:02:00,
2013-04-12 01:03:00,70.5,65.0,29.51,SE,135,6.7,6.7,83,0.00,,,0.00,WUHU216HW,2013-04-12 05:03:00,
2013-04-12 01:04:00,64.0,50.2,29.84,NNE,23,0.0,0.0,60,0.00,,,0.00,WUHU216HW,2013-04-12 05:04:00,
2013-04-12 01:05:00,64.0,50.2,29.84,NNE,23,0.0,0.0,60,0.00,,,0.00,WUHU216HW,2013-04-12 05:05:00,
2013-04-12 01:07:00,64.0,50.2,29.84,ENE,68,0.0,0.0,60,0.00,,,0.00,WUHU216HW,2013-04-12 05:07:00,
2013-04-12 01:08:00,64.0,50.2,29.84,ENE,68,0.0,0.0,60,0.00,,,0.00,WUHU216HW,2013-04-12 05:08:00,
2013-04-12 01:09:00,70.5,65.0,29.51,SE,135,6.7,6.7,83,0.00,,,0.00,WUHU216HW,2013-04-12 05:09:00,
2013-04-12 01:12:00,64.0,50.2,29.84,ENE,68,0.0,0.0,60,0.00,,,0.00,WUHU216HW,2013-04-12 05:12:00,
2013-04-12 01:14:00,70.5,65.0,29.51,SW,225,0.0,6.7,83,0.00,,,0.00,WUHU216HW,2013-04-12 05:14:00,
2013-04-12 01:19:00,70.5,65.0,29.51,SE,135,0.0,6.7,83,0.00,,,0.00,WUHU216HW,2013-04-12 05:19:00,
2013-04-12 01:24:00,70.5,65.0,29.51,East,90,0.0,3.8,83,0.00,,,0.00,WUHU216HW,2013-04-12 05:24:00,
2013-04-12 01:34:00,70.5,65.0,29.51,SW,225,4.0,8.5,83,0.00,,,0.00,WUHU216HW,2013-04-12 05:34:00,
2013-04-12 01:40:00,70.5,65.0,29.50,SE,135,3.8,8.5,83,0.00,,,0.00,WUHU216HW,2013-04-12 05:40:00,
2013-04-12 01:45:00,70.5,65.0,29.51,SE,135,3.5,6.7,83,0.00,,,0.00,WUHU216HW,2013-04-12 05:45:00,
2013-04-12 01:50:00,70.5,65.0,29.50,SSE,158,2.9,7.3,83,0.00,,,0.00,WUHU216HW,2013-04-12 05:50:00,
2013-04-12 01:55:00,70.5,65.0,29.50,South,180,5.1,7.3,83,0.00,,,0.00,WUHU216HW,2013-04-12 05:55:00,
2013-04-12 02:00:00,70.5,65.0,29.50,ESE,113,4.4,5.1,83,0.00,,,0.00,WUHU216HW,2013-04-12 06:00:00,
2013-04-12 02:05:00,70.5,65.0,29.50,SSE,158,0.0,5.1,83,0.00,,,0.00,WUHU216HW,2013-04-12 06:05:00,
2013-04-12 02:11:00,70.5,65.0,29.49,SSW,203,4.2,4.4,83,0.00,,,0.00,WUHU216HW,2013-04-12 06:11:00,
2013-04-12 02:16:00,70.5,65.0,29.49,SE,135,0.0,4.2,83,0.00,,,0.00,WUHU216HW,2013-04-12 06:16:00,
2013-04-12 02:21:00,70.5,65.0,29.49,South,180,0.0,8.9,83,0.00,,,0.00,WUHU216HW,2013-04-12 06:21:00,
2013-04-12 02:27:00,70.5,65.0,29.48,SW,225,1.3,8.9,83,0.00,,,0.00,WUHU216HW,2013-04-12 06:27:00,
2013-04-12 02:32:00,70.5,65.0,29.48,SE,135,3.3,6.7,83,0.00,,,0.00,WUHU216HW,2013-04-12 06:32:00,
2013-04-12 02:38:00,70.5,65.0,29.48,ESE,113,0.0,4.2,83,0.00,,,0.00,WUHU216HW,2013-04-12 06:38:00,
2013-04-12 02:43:00,70.5,65.0,29.48,SSE,158,2.6,4.2,83,0.00,,,0.00,WUHU216HW,2013-04-12 06:43:00,
2013-04-12 02:48:00,70.5,64.7,29.48,South,180,2.4,6.9,82,0.00,,,0.00,WUHU216HW,2013-04-12 06:48:00,
2013-04-12 02:53:00,70.5,64.7,29.48,WSW,248,1.3,9.3,82,0.00,,,0.00,WUHU216HW,2013-04-12 06:53:00,
2013-04-12 03:00:00,70.7,64.9,29.48,SSW,203,4.9,9.3,82,0.00,,,0.00,WUHU216HW,2013-04-12 07:00:00,
2013-04-12 03:05:00,70.7,64.9,29.47,SSW,203,3.3,4.9,82,0.00,,,0.00,WUHU216HW,2013-04-12 07:05:00,
2013-04-12 03:10:00,70.7,64.5,29.47,SSE,158,5.1,7.1,81,0.00,,,0.00,WUHU216HW,2013-04-12 07:10:00,
2013-04-12 03:15:00,70.7,64.5,29.46,SSW,203,1.7,8.7,81,0.00,,,0.00,WUHU216HW,2013-04-12 07:15:00,
2013-04-12 03:22:00,70.5,64.3,29.46,SE,135,0.0,6.0,81,0.00,,,0.00,WUHU216HW,2013-04-12 07:22:00,
2013-04-12 03:28:00,70.5,64.3,29.46,South,180,0.0,10.5,81,0.00,,,0.00,WUHU216HW,2013-04-12 07:28:00,
2013-04-12 03:33:00,70.7,64.5,29.45,SSE,158,3.3,10.5,81,0.00,,,0.00,WUHU216HW,2013-04-12 07:33:00,
2013-04-12 03:38:00,70.7,64.5,29.46,SSE,158,0.8,5.1,81,0.00,,,0.00,WUHU216HW,2013-04-12 07:38:00,
2013-04-12 03:44:00,70.5,64.3,29.45,SW,225,0.0,7.6,81,0.00,,,0.00,WUHU216HW,2013-04-12 07:44:00,
2013-04-12 03:49:00,70.5,64.3,29.45,SSE,158,3.8,7.6,81,0.00,,,0.00,WUHU216HW,2013-04-12 07:49:00,
2013-04-12 03:55:00,70.5,64.3,29.45,SSW,203,5.3,5.3,81,0.00,,,0.00,WUHU216HW,2013-04-12 07:55:00,
2013-04-12 04:01:00,70.5,64.3,29.45,South,180,0.0,5.3,81,0.00,,,0.00,WUHU216HW,2013-04-12 08:01:00,
2013-04-12 04:06:00,70.5,64.3,29.45,SE,135,2.6,5.3,81,0.00,,,0.00,WUHU216HW,2013-04-12 08:06:00,
2013-04-12 04:12:00,70.5,64.3,29.45,South,180,6.0,7.6,81,0.00,,,0.00,WUHU216HW,2013-04-12 08:12:00,
2013-04-12 04:17:00,70.5,64.3,29.44,SW,225,6.2,7.6,81,0.00,,,0.00,WUHU216HW,2013-04-12 08:17:00,
2013-04-12 04:22:00,70.5,64.3,29.44,SE,135,0.0,6.2,81,0.00,,,0.00,WUHU216HW,2013-04-12 08:22:00,
2013-04-12 04:27:00,70.5,64.3,29.45,SSE,158,6.2,6.2,81,0.00,,,0.00,WUHU216HW,2013-04-12 08:27:00,
2013-04-12 04:32:00,70.5,64.3,29.45,SSW,203,0.0,6.2,81,0.00,,,0.00,WUHU216HW,2013-04-12 08:32:00,
2013-04-12 04:37:00,70.5,64.3,29.44,SW,225,0.0,6.2,81,0.00,,,0.00,WUHU216HW,2013-04-12 08:37:00,
2013-04-12 04:42:00,70.5,64.3,29.44,SW,225,0.0,5.5,81,0.00,,,0.00,WUHU216HW,2013-04-12 08:42:00,
2013-04-12 04:48:00,70.5,64.3,29.44,SSE,158,2.2,2.2,81,0.00,,,0.00,WUHU216HW,2013-04-12 08:48:00,
2013-04-12 04:49:00,59.9,51.2,29.85,ENE,68,0.0,0.0,73,0.00,,,0.00,WUHU216HW,2013-04-12 08:49:00,
2013-04-12 04:50:00,59.7,51.0,29.85,ENE,68,0.0,0.0,73,0.00,,,0.00,WUHU216HW,2013-04-12 08:50:00,
2013-04-12 04:52:00,59.7,51.0,29.85,ENE,68,0.0,0.0,74,0.00,,,0.00,WUHU216HW,2013-04-12 08:52:00,
2013-04-12 04:53:00,70.5,64.3,29.44,SW,225,2.0,2.2,81,0.00,,,0.00,WUHU216HW,2013-04-12 08:53:00,
2013-04-12 04:54:00,59.5,51.2,29.85,ENE,68,0.0,0.0,74,0.00,,,0.00,WUHU216HW,2013-04-12 08:54:00,
2013-04-12 04:56:00,59.3,51.4,29.85,ENE,68,0.0,0.0,75,0.00,,,0.00,WUHU216HW,2013-04-12 08:56:00,
2013-04-12 04:57:00,59.3,51.4,29.85,ENE,68,0.0,0.0,75,0.00,,,0.00,WUHU216HW,2013-04-12 08:57:00,
2013-04-12 04:58:00,70.3,64.2,29.45,South,180,3.3,7.6,81,0.00,,,0.00,WUHU216HW,2013-04-12 08:58:00,
2013-04-12 04:59:00,59.1,51.2,29.85,ENE,68,0.0,0.0,75,0.00,,,0.00,WUHU216HW,2013-04-12 08:59:00,
2013-04-12 05:00:00,59.1,51.2,29.85,ENE,68,0.0,0.0,75,0.00,,,0.00,WUHU216HW,2013-04-12 09:00:00,
2013-04-12 05:01:00,59.0,51.0,29.85,ENE,68,0.0,0.0,75,0.00,,,0.00,WUHU216HW,2013-04-12 09:01:00,
2013-04-12 05:02:00,59.0,51.0,29.85,ENE,68,0.0,0.0,75,0.00,,,0.00,WUHU216HW,2013-04-12 09:02:00,
2013-04-12 05:04:00,59.0,51.0,29.85,ENE,68,0.0,0.0,75,0.00,,,0.00,WUHU216HW,2013-04-12 09:04:00,
2013-04-12 05:05:00,70.3,64.5,29.45,SSW,203,5.1,8.9,82,0.00,,,0.00,WUHU216HW,2013-04-12 09:05:00,
2013-04-12 05:06:00,59.0,51.0,29.85,ENE,68,0.0,0.0,75,0.00,,,0.00,WUHU216HW,2013-04-12 09:06:00,
2013-04-12 05:10:00,59.0,51.0,29.85,ENE,68,0.0,0.0,75,0.00,,,0.00,WUHU216HW,2013-04-12 09:10:00,
2013-04-12 05:11:00,69.6,64.5,29.46,South,180,0.0,10.9,84,0.02,,,0.02,WUHU216HW,2013-04-12 09:11:00,
2013-04-12 05:17:00,68.9,64.5,29.46,SSE,158,0.0,10.9,86,0.02,,,0.02,WUHU216HW,2013-04-12 09:17:00,
2013-04-12 05:22:00,68.5,64.1,29.45,SSE,158,0.0,0.0,86,0.04,,,0.04,WUHU216HW,2013-04-12 09:22:00,
2013-04-12 05:28:00,68.1,64.1,29.44,SSE,158,3.5,3.5,87,0.06,,,0.06,WUHU216HW,2013-04-12 09:28:00,
2013-04-12 05:34:00,67.8,63.7,29.44,SSE,158,3.3,3.5,87,0.08,,,0.08,WUHU216HW,2013-04-12 09:34:00,
2013-04-12 05:39:00,67.6,63.9,29.43,SE,135,0.0,3.3,88,0.08,,,0.08,WUHU216HW,2013-04-12 09:39:00,
2013-04-12 05:44:00,67.6,63.9,29.43,SSE,158,2.0,3.3,88,0.08,,,0.08,WUHU216HW,2013-04-12 09:44:00,
2013-04-12 05:49:00,67.6,63.9,29.44,SSE,158,2.4,2.4,88,0.08,,,0.08,WUHU216HW,2013-04-12 09:49:00,
2013-04-12 05:55:00,67.6,63.9,29.44,South,180,1.7,4.0,88,0.08,,,0.08,WUHU216HW,2013-04-12 09:55:00,
2013-04-12 05:59:00,56.8,50.7,29.86,ENE,68,0.0,0.0,80,0.00,,,0.00,WUHU216HW,2013-04-12 09:59:00,
2013-04-12 06:00:00,67.4,63.7,29.43,SSE,158,0.8,4.9,88,0.12,,,0.12,WUHU216HW,2013-04-12 10:00:00,
2013-04-12 06:01:00,56.6,50.5,29.86,ENE,68,0.0,0.0,80,0.00,,,0.00,WUHU216HW,2013-04-12 10:01:00,
2013-04-12 06:02:00,56.6,50.5,29.86,ENE,68,0.0,0.0,80,0.00,,,0.00,WUHU216HW,2013-04-12 10:02:00,
2013-04-12 06:03:00,56.6,50.5,29.86,ENE,68,0.0,0.0,80,0.00,,,0.00,WUHU216HW,2013-04-12 10:03:00,
2013-04-12 06:05:00,67.2,63.5,29.43,SE,135,0.0,5.5,88,0.12,,,0.12,WUHU216HW,2013-04-12 10:05:00,
2013-04-12 06:07:00,56.6,50.5,29.86,ENE,68,0.0,0.0,80,0.00,,,0.00,WUHU216HW,2013-04-12 10:07:00,
2013-04-12 06:09:00,56.6,50.5,29.86,ENE,68,0.0,0.0,80,0.00,,,0.00,WUHU216HW,2013-04-12 10:09:00,
2013-04-12 06:10:00,67.2,63.5,29.43,SE,135,1.1,7.1,88,0.12,,,0.12,WUHU216HW,2013-04-12 10:10:00,
2013-04-12 06:11:00,56.4,50.3,29.86,ENE,68,0.0,0.0,80,0.00,,,0.00,WUHU216HW,2013-04-12 10:11:00,
2013-04-12 06:12:00,56.4,50.3,29.86,ENE,68,0.0,0.0,80,0.00,,,0.00,WUHU216HW,2013-04-12 10:12:00,
2013-04-12 06:13:00,56.4,50.3,29.86,ENE,68,0.0,0.0,80,0.00,,,0.00,WUHU216HW,2013-04-12 10:13:00,
2013-04-12 06:15:00,67.2,63.5,29.43,SW,225,0.0,7.1,88,0.12,,,0.12,WUHU216HW,2013-04-12 10:15:00,
2013-04-12 06:16:00,56.4,50.3,29.86,ENE,68,0.0,0.0,80,0.00,,,0.00,WUHU216HW,2013-04-12 10:16:00,
2013-04-12 06:18:00,56.4,50.3,29.86,ENE,68,0.0,0.0,80,0.00,,,0.00,WUHU216HW,2013-04-12 10:18:00,
2013-04-12 06:19:00,56.3,50.5,29.86,ENE,68,0.0,0.0,81,0.00,,,0.00,WUHU216HW,2013-04-12 10:19:00,
2013-04-12 06:20:00,67.2,63.5,29.43,SW,225,4.6,4.6,88,0.12,,,0.12,WUHU216HW,2013-04-12 10:20:00,
2013-04-12 06:27:00,67.1,63.3,29.42,SE,135,5.3,6.4,88,0.12,,,0.12,WUHU216HW,2013-04-12 10:27:00,
2013-04-12 06:30:00,55.9,50.4,29.86,ENE,68,0.0,0.0,82,0.00,,,0.00,WUHU216HW,2013-04-12 10:30:00,
2013-04-12 06:32:00,55.9,50.4,29.86,ENE,68,0.0,0.0,82,0.00,,,0.00,WUHU216HW,2013-04-12 10:32:00,
2013-04-12 06:33:00,67.1,63.3,29.43,SSE,158,5.8,10.0,88,0.12,,,0.12,WUHU216HW,2013-04-12 10:33:00,
2013-04-12 06:34:00,55.7,49.9,29.86,ENE,68,0.0,0.0,81,0.00,,,0.00,WUHU216HW,2013-04-12 10:34:00,
2013-04-12 06:35:00,55.7,49.9,29.86,ENE,68,0.0,0.0,81,0.00,,,0.00,WUHU216HW,2013-04-12 10:35:00,
2013-04-12 06:36:00,55.7,49.9,29.86,ENE,68,0.0,0.0,81,0.00,,,0.00,WUHU216HW,2013-04-12 10:36:00,
2013-04-12 06:37:00,55.7,49.9,29.86,ENE,68,0.0,0.0,81,0.00,,,0.00,WUHU216HW,2013-04-12 10:37:00,
2013-04-12 06:38:00,67.2,63.5,29.42,SW,225,5.5,10.0,88,0.12,,,0.12,WUHU216HW,2013-04-12 10:38:00,
2013-04-12 06:39:00,55.7,49.9,29.86,ENE,68,0.0,0.0,81,0.00,,,0.00,WUHU216HW,2013-04-12 10:39:00,
2013-04-12 06:40:00,55.5,50.1,29.86,ENE,68,0.0,0.0,82,0.00,,,0.00,WUHU216HW,2013-04-12 10:40:00,
2013-04-12 06:41:00,55.5,50.1,29.86,ENE,68,0.0,0.0,82,0.00,,,0.00,WUHU216HW,2013-04-12 10:41:00,
2013-04-12 06:42:00,55.5,50.1,29.86,ENE,68,0.0,0.0,82,0.00,,,0.00,WUHU216HW,2013-04-12 10:42:00,
2013-04-12 06:43:00,67.1,63.3,29.42,WSW,248,0.0,9.3,88,0.12,,,0.12,WUHU216HW,2013-04-12 10:43:00,
2013-04-12 06:44:00,55.5,50.1,29.86,ENE,68,0.0,0.0,82,0.00,,,0.00,WUHU216HW,2013-04-12 10:44:00,
2013-04-12 06:45:00,55.5,50.1,29.86,ENE,68,0.0,0.0,82,0.00,,,0.00,WUHU216HW,2013-04-12 10:45:00,
2013-04-12 06:46:00,55.5,50.1,29.86,ENE,68,0.0,0.0,82,0.00,,,0.00,WUHU216HW,2013-04-12 10:46:00,
2013-04-12 06:47:00,55.5,50.1,29.86,ENE,68,0.0,0.0,82,0.00,,,0.00,WUHU216HW,2013-04-12 10:47:00,
2013-04-12 06:48:00,66.9,63.2,29.43,South,180,4.6,8.5,88,0.12,,,0.12,WUHU216HW,2013-04-12 10:48:00,
2013-04-12 06:49:00,55.5,50.1,29.86,ENE,68,0.0,0.0,82,0.00,,,0.00,WUHU216HW,2013-04-12 10:49:00,
2013-04-12 06:50:00,55.5,50.1,29.86,ENE,68,0.0,0.0,82,0.00,,,0.00,WUHU216HW,2013-04-12 10:50:00,
2013-04-12 06:51:00,55.5,50.1,29.86,ENE,68,0.0,0.0,82,0.00,,,0.00,WUHU216HW,2013-04-12 10:51:00,
2013-04-12 06:52:00,55.5,50.1,29.86,ENE,68,0.0,0.0,82,0.00,,,0.00,WUHU216HW,2013-04-12 10:52:00,
2013-04-12 06:53:00,55.5,50.1,29.86,ENE,68,0.0,0.0,82,0.00,,,0.00,WUHU216HW,2013-04-12 10:53:00,
2013-04-12 06:54:00,66.9,63.2,29.45,WNW,293,0.0,5.5,88,0.12,,,0.12,WUHU216HW,2013-04-12 10:54:00,
2013-04-12 06:55:00,55.5,50.1,29.87,ENE,68,0.0,0.0,81,0.00,,,0.00,WUHU216HW,2013-04-12 10:55:00,
2013-04-12 06:56:00,55.5,50.1,29.87,ENE,68,0.0,0.0,81,0.00,,,0.00,WUHU216HW,2013-04-12 10:56:00,
2013-04-12 06:57:00,55.5,50.1,29.86,ENE,68,0.0,0.0,81,0.00,,,0.00,WUHU216HW,2013-04-12 10:57:00,
2013-04-12 06:58:00,55.5,50.1,29.87,ENE,68,0.0,0.0,81,0.00,,,0.00,WUHU216HW,2013-04-12 10:58:00,
2013-04-12 06:59:00,66.9,63.2,29.44,ESE,113,0.0,5.5,89,0.12,,,0.12,WUHU216HW,2013-04-12 10:59:00,
2013-04-12 07:00:00,55.5,50.1,29.87,ENE,68,0.0,0.0,81,0.00,,,0.00,WUHU216HW,2013-04-12 11:00:00,
2013-04-12 07:01:00,55.5,50.1,29.87,ENE,68,0.0,0.0,81,0.00,,,0.00,WUHU216HW,2013-04-12 11:01:00,
2013-04-12 07:02:00,55.5,50.1,29.87,ENE,68,0.0,0.0,81,0.00,,,0.00,WUHU216HW,2013-04-12 11:02:00,
2013-04-12 07:03:00,55.5,50.1,29.87,ENE,68,0.0,0.0,81,0.00,,,0.00,WUHU216HW,2013-04-12 11:03:00,
2013-04-12 07:04:00,66.9,63.5,29.44,SE,135,0.0,4.2,89,0.00,,,0.12,WUHU216HW,2013-04-12 11:04:00,
2013-04-12 07:05:00,55.5,50.1,29.86,ENE,68,0.0,0.0,82,0.00,,,0.00,WUHU216HW,2013-04-12 11:05:00,
2013-04-12 07:06:00,55.2,49.7,29.86,ENE,68,0.0,0.0,82,0.00,,,0.00,WUHU216HW,2013-04-12 11:06:00,
2013-04-12 07:07:00,55.2,49.7,29.86,ENE,68,0.0,0.0,82,0.00,,,0.00,WUHU216HW,2013-04-12 11:07:00,
2013-04-12 07:08:00,55.2,49.7,29.86,ENE,68,0.0,0.0,82,0.00,,,0.00,WUHU216HW,2013-04-12 11:08:00,
2013-04-12 07:09:00,66.9,63.5,29.45,SSE,158,0.0,4.2,89,0.00,,,0.12,WUHU216HW,2013-04-12 11:09:00,
2013-04-12 07:10:00,55.2,49.7,29.86,ENE,68,0.0,0.0,82,0.00,,,0.00,WUHU216HW,2013-04-12 11:10:00,
2013-04-12 07:11:00,55.2,49.7,29.86,ENE,68,0.0,0.0,82,0.00,,,0.00,WUHU216HW,2013-04-12 11:11:00,
2013-04-12 07:12:00,55.2,49.7,29.86,ENE,68,0.0,0.0,82,0.00,,,0.00,WUHU216HW,2013-04-12 11:12:00,
2013-04-12 07:13:00,55.2,49.7,29.86,ENE,68,0.0,0.0,82,0.00,,,0.00,WUHU216HW,2013-04-12 11:13:00,
2013-04-12 07:14:00,55.2,49.7,29.86,ENE,68,0.0,0.0,82,0.00,,,0.00,WUHU216HW,2013-04-12 11:14:00,
2013-04-12 07:15:00,55.2,49.7,29.86,ENE,68,0.0,0.0,82,0.00,,,0.00,WUHU216HW,2013-04-12 11:15:00,
2013-04-12 07:16:00,66.7,63.3,29.45,SSE,158,1.5,1.5,89,0.02,,,0.14,WUHU216HW,2013-04-12 11:16:00,
2013-04-12 07:17:00,55.0,49.5,29.86,ENE,68,0.0,0.0,82,0.00,,,0.00,WUHU216HW,2013-04-12 11:17:00,
2013-04-12 07:18:00,55.0,49.5,29.86,ENE,68,0.0,0.0,82,0.00,,,0.00,WUHU216HW,2013-04-12 11:18:00,
2013-04-12 07:19:00,55.0,49.5,29.86,ENE,68,0.0,0.0,83,0.00,,,0.00,WUHU216HW,2013-04-12 11:19:00,
2013-04-12 07:20:00,55.0,49.5,29.86,ENE,68,0.0,0.0,83,0.00,,,0.00,WUHU216HW,2013-04-12 11:20:00,
2013-04-12 07:21:00,66.5,63.1,29.45,SSE,158,1.7,4.0,89,0.02,,,0.14,WUHU216HW,2013-04-12 11:21:00,
2013-04-12 07:22:00,54.6,49.5,29.86,ENE,68,0.0,0.0,83,0.00,,,0.00,WUHU216HW,2013-04-12 11:22:00,
2013-04-12 07:23:00,54.6,49.5,29.85,ENE,68,0.0,0.0,83,0.00,,,0.00,WUHU216HW,2013-04-12 11:23:00,
2013-04-12 07:24:00,54.6,49.5,29.86,ENE,68,0.0,0.0,83,0.00,,,0.00,WUHU216HW,2013-04-12 11:24:00,
2013-04-12 07:25:00,54.6,49.5,29.86,ENE,68,0.0,0.0,83,0.00,,,0.00,WUHU216HW,2013-04-12 11:25:00,
2013-04-12 07:26:00,54.6,49.5,29.86,ENE,68,0.0,0.0,83,0.00,,,0.00,WUHU216HW,2013-04-12 11:26:00,
2013-04-12 07:27:00,54.6,49.5,29.86,ENE,68,0.0,0.0,83,0.00,,,0.00,WUHU216HW,2013-04-12 11:27:00,
2013-04-12 07:28:00,66.5,63.1,29.46,SW,225,0.0,4.0,89,0.02,,,0.14,WUHU216HW,2013-04-12 11:28:00,
2013-04-12 07:29:00,54.6,49.5,29.85,ENE,68,0.0,0.0,83,0.00,,,0.00,WUHU216HW,2013-04-12 11:29:00,
2013-04-12 07:30:00,54.6,49.5,29.85,ENE,68,0.0,0.0,83,0.00,,,0.00,WUHU216HW,2013-04-12 11:30:00,
2013-04-12 07:31:00,54.6,49.5,29.85,ENE,68,0.0,0.0,83,0.00,,,0.00,WUHU216HW,2013-04-12 11:31:00,
2013-04-12 07:32:00,54.6,49.5,29.85,ENE,68,0.0,0.0,83,0.00,,,0.00,WUHU216HW,2013-04-12 11:32:00,
2013-04-12 07:33:00,66.3,62.9,29.46,SW,225,0.0,1.7,89,0.02,,,0.14,WUHU216HW,2013-04-12 11:33:00,
2013-04-12 07:34:00,54.5,49.4,29.85,ENE,68,0.0,0.0,83,0.00,,,0.00,WUHU216HW,2013-04-12 11:34:00,
2013-04-12 07:35:00,54.5,49.4,29.85,ENE,68,0.0,0.0,83,0.00,,,0.00,WUHU216HW,2013-04-12 11:35:00,
2013-04-12 07:36:00,54.5,49.4,29.85,ENE,68,0.0,0.0,83,0.00,,,0.00,WUHU216HW,2013-04-12 11:36:00,
2013-04-12 07:37:00,54.5,49.4,29.85,ENE,68,0.0,0.0,83,0.00,,,0.00,WUHU216HW,2013-04-12 11:37:00,
2013-04-12 07:38:00,66.3,62.9,29.45,SE,135,0.0,0.0,89,0.04,,,0.16,WUHU216HW,2013-04-12 11:38:00,
2013-04-12 07:39:00,54.5,49.4,29.85,ENE,68,0.0,0.0,83,0.00,,,0.00,WUHU216HW,2013-04-12 11:39:00,
2013-04-12 07:40:00,54.5,49.4,29.85,ENE,68,0.0,0.0,83,0.00,,,0.00,WUHU216HW,2013-04-12 11:40:00,
2013-04-12 07:41:00,54.5,49.4,29.85,ENE,68,0.0,0.0,83,0.00,,,0.00,WUHU216HW,2013-04-12 11:41:00,
2013-04-12 07:42:00,54.5,49.4,29.84,ENE,68,0.0,0.0,83,0.00,,,0.00,WUHU216HW,2013-04-12 11:42:00,
2013-04-12 07:43:00,54.5,49.4,29.84,ENE,68,0.0,0.0,83,0.00,,,0.00,WUHU216HW,2013-04-12 11:43:00,
2013-04-12 07:44:00,66.3,62.9,29.45,SSE,158,4.2,4.2,89,0.04,,,0.16,WUHU216HW,2013-04-12 11:44:00,
2013-04-12 07:45:00,54.5,49.4,29.84,ENE,68,0.0,0.0,83,0.00,,,0.00,WUHU216HW,2013-04-12 11:45:00,
2013-04-12 07:46:00,54.6,49.5,29.84,ENE,68,0.0,0.0,83,0.00,,,0.00,WUHU216HW,2013-04-12 11:46:00,
2013-04-12 07:47:00,54.6,49.5,29.84,ENE,68,0.0,0.0,83,0.00,,,0.00,WUHU216HW,2013-04-12 11:47:00,
2013-04-12 07:48:00,54.6,49.5,29.84,ENE,68,0.0,0.0,83,0.00,,,0.00,WUHU216HW,2013-04-12 11:48:00,
2013-04-12 07:49:00,66.3,62.9,29.45,South,180,0.0,4.2,89,0.04,,,0.16,WUHU216HW,2013-04-12 11:49:00,
2013-04-12 07:50:00,54.6,49.5,29.84,ENE,68,0.0,0.0,83,0.00,,,0.00,WUHU216HW,2013-04-12 11:50:00,
2013-04-12 07:51:00,54.6,49.5,29.84,ENE,68,0.0,0.0,82,0.00,,,0.00,WUHU216HW,2013-04-12 11:51:00,
2013-04-12 07:52:00,54.6,49.5,29.84,ENE,68,0.0,0.0,82,0.00,,,0.00,WUHU216HW,2013-04-12 11:52:00,
2013-04-12 07:53:00,54.6,49.5,29.84,ENE,68,0.0,0.0,82,0.00,,,0.00,WUHU216HW,2013-04-12 11:53:00,
2013-04-12 07:54:00,54.6,49.5,29.84,ENE,68,0.0,0.0,82,0.00,,,0.00,WUHU216HW,2013-04-12 11:54:00,
2013-04-12 07:55:00,66.3,62.9,29.45,South,180,0.0,4.6,89,0.04,,,0.16,WUHU216HW,2013-04-12 11:55:00,
2013-04-12 07:56:00,54.6,49.5,29.84,ENE,68,0.0,0.0,82,0.00,,,0.00,WUHU216HW,2013-04-12 11:56:00,
2013-04-12 07:57:00,54.6,49.5,29.85,ENE,68,0.0,0.0,82,0.00,,,0.00,WUHU216HW,2013-04-12 11:57:00,
2013-04-12 07:58:00,54.6,49.5,29.84,ENE,68,0.0,0.0,82,0.00,,,0.00,WUHU216HW,2013-04-12 11:58:00,
2013-04-12 07:59:00,54.6,49.5,29.84,ENE,68,0.0,0.0,82,0.00,,,0.00,WUHU216HW,2013-04-12 11:59:00,
2013-04-12 08:00:00,66.3,62.9,29.45,SSE,158,2.2,6.0,89,0.04,,,0.16,WUHU216HW,2013-04-12 12:00:00,
2013-04-12 08:01:00,54.6,49.5,29.84,ENE,68,0.0,0.0,82,0.00,,,0.00,WUHU216HW,2013-04-12 12:01:00,
2013-04-12 08:02:00,54.6,49.5,29.84,ENE,68,0.0,0.0,82,0.00,,,0.00,WUHU216HW,2013-04-12 12:02:00,
2013-04-12 08:03:00,54.6,49.5,29.84,ENE,68,0.0,0.0,82,0.00,,,0.00,WUHU216HW,2013-04-12 12:03:00,
2013-04-12 08:04:00,54.6,49.5,29.84,ENE,68,0.0,0.0,82,0.00,,,0.00,WUHU216HW,2013-04-12 12:04:00,
2013-04-12 08:05:00,66.3,62.9,29.44,SE,135,1.1,6.0,89,0.04,,,0.16,WUHU216HW,2013-04-12 12:05:00,
2013-04-12 08:06:00,54.8,49.4,29.85,ENE,68,0.0,0.0,82,0.00,,,0.00,WUHU216HW,2013-04-12 12:06:00,
2013-04-12 08:07:00,54.8,49.4,29.85,ENE,68,0.0,0.0,82,0.00,,,0.00,WUHU216HW,2013-04-12 12:07:00,
2013-04-12 08:08:00,55.0,49.5,29.85,ENE,68,0.0,0.0,82,0.00,,,0.00,WUHU216HW,2013-04-12 12:08:00,
2013-04-12 08:09:00,55.0,49.5,29.85,ENE,68,0.0,0.0,82,0.00,,,0.00,WUHU216HW,2013-04-12 12:09:00,
2013-04-12 08:10:00,66.3,62.9,29.44,SSE,158,3.3,3.3,89,0.04,,,0.16,WUHU216HW,2013-04-12 12:10:00,
2013-04-12 08:11:00,55.0,49.5,29.85,ENE,68,0.0,0.0,82,0.00,,,0.00,WUHU216HW,2013-04-12 12:11:00,
2013-04-12 08:12:00,55.0,49.5,29.85,ENE,68,0.0,0.0,82,0.00,,,0.00,WUHU216HW,2013-04-12 12:12:00,
2013-04-12 08:13:00,55.0,49.5,29.85,ENE,68,0.0,0.0,81,0.00,,,0.00,WUHU216HW,2013-04-12 12:13:00,
2013-04-12 08:14:00,55.0,49.5,29.85,ENE,68,0.0,0.0,81,0.00,,,0.00,WUHU216HW,2013-04-12 12:14:00,
2013-04-12 08:15:00,66.3,62.9,29.44,SE,135,2.6,6.7,89,0.04,,,0.16,WUHU216HW,2013-04-12 12:15:00,
2013-04-12 08:16:00,55.0,49.5,29.85,ENE,68,0.0,0.0,81,0.00,,,0.00,WUHU216HW,2013-04-12 12:16:00,
2013-04-12 08:17:00,55.0,49.5,29.85,ENE,68,0.0,0.0,81,0.00,,,0.00,WUHU216HW,2013-04-12 12:17:00,
2013-04-12 08:18:00,55.0,49.5,29.85,ENE,68,0.0,0.0,81,0.00,,,0.00,WUHU216HW,2013-04-12 12:18:00,
2013-04-12 08:19:00,55.2,49.4,29.85,ENE,68,0.0,0.0,81,0.00,,,0.00,WUHU216HW,2013-04-12 12:19:00,
2013-04-12 08:20:00,66.5,63.1,29.44,SSE,158,1.5,6.9,89,0.04,,,0.16,WUHU216HW,2013-04-12 12:20:00,
2013-04-12 08:21:00,55.2,49.4,29.85,ENE,68,0.0,0.0,81,0.00,,,0.00,WUHU216HW,2013-04-12 12:21:00,
2013-04-12 08:22:00,55.2,49.4,29.85,ENE,68,0.0,0.0,81,0.00,,,0.00,WUHU216HW,2013-04-12 12:22:00,
2013-04-12 08:23:00,55.2,49.4,29.85,ENE,68,0.0,0.0,81,0.00,,,0.00,WUHU216HW,2013-04-12 12:23:00,
2013-04-12 08:24:00,55.2,49.4,29.85,ENE,68,0.0,0.0,81,0.00,,,0.00,WUHU216HW,2013-04-12 12:24:00,
2013-04-12 08:25:00,55.2,49.4,29.85,ENE,68,0.0,0.0,81,0.00,,,0.00,WUHU216HW,2013-04-12 12:25:00,
2013-04-12 08:26:00,66.7,63.3,29.45,SSE,158,0.0,6.9,89,0.04,,,0.16,WUHU216HW,2013-04-12 12:26:00,
2013-04-12 08:27:00,55.2,49.4,29.85,ENE,68,0.0,0.0,81,0.00,,,0.00,WUHU216HW,2013-04-12 12:27:00,
2013-04-12 08:28:00,55.2,49.4,29.85,ENE,68,0.0,0.0,81,0.00,,,0.00,WUHU216HW,2013-04-12 12:28:00,
2013-04-12 08:29:00,55.2,49.4,29.85,ENE,68,0.0,0.0,81,0.00,,,0.00,WUHU216HW,2013-04-12 12:29:00,
2013-04-12 08:30:00,55.2,49.4,29.85,ENE,68,0.0,0.0,81,0.00,,,0.00,WUHU216HW,2013-04-12 12:30:00,
2013-04-12 08:31:00,66.7,63.3,29.44,South,180,1.5,5.3,89,0.04,,,0.16,WUHU216HW,2013-04-12 12:31:00,
2013-04-12 08:32:00,55.2,49.4,29.84,ENE,68,0.0,0.0,81,0.00,,,0.00,WUHU216HW,2013-04-12 12:32:00,
2013-04-12 08:33:00,55.2,49.4,29.84,ENE,68,0.0,0.0,81,0.00,,,0.00,WUHU216HW,2013-04-12 12:33:00,
2013-04-12 08:34:00,55.2,49.4,29.85,ENE,68,0.0,0.0,81,0.00,,,0.00,WUHU216HW,2013-04-12 12:34:00,
2013-04-12 08:35:00,55.2,49.4,29.85,ENE,68,0.0,0.0,81,0.00,,,0.00,WUHU216HW,2013-04-12 12:35:00,
2013-04-12 08:36:00,66.9,63.5,29.44,SSW,203,0.0,6.0,89,0.04,,,0.16,WUHU216HW,2013-04-12 12:36:00,
2013-04-12 08:37:00,55.2,49.4,29.85,ENE,68,0.0,0.0,81,0.00,,,0.00,WUHU216HW,2013-04-12 12:37:00,
2013-04-12 08:38:00,55.0,49.2,29.85,ENE,68,0.0,0.0,81,0.00,,,0.00,WUHU216HW,2013-04-12 12:38:00,
2013-04-12 08:39:00,55.0,49.2,29.85,ENE,68,0.0,0.0,81,0.00,,,0.00,WUHU216HW,2013-04-12 12:39:00,
2013-04-12 08:40:00,55.0,49.2,29.85,ENE,68,0.0,0.0,81,0.00,,,0.00,WUHU216HW,2013-04-12 12:40:00,
2013-04-12 08:41:00,55.2,49.4,29.85,ENE,68,0.0,0.0,81,0.00,,,0.00,WUHU216HW,2013-04-12 12:41:00,
2013-04-12 08:42:00,67.1,63.7,29.44,SSE,158,3.3,6.0,89,0.04,,,0.16,WUHU216HW,2013-04-12 12:42:00,
2013-04-12 08:48:00,67.4,64.0,29.44,SE,135,3.8,4.0,89,0.04,,,0.16,WUHU216HW,2013-04-12 12:48:00,
2013-04-12 08:55:00,67.6,64.2,29.44,SSE,158,0.0,3.8,89,0.04,,,0.16,WUHU216HW,2013-04-12 12:55:00,
2013-04-12 09:04:00,55.0,49.2,29.85,ENE,68,0.0,0.0,81,0.00,,,0.00,WUHU216HW,2013-04-12 13:04:00,
2013-04-12 09:05:00,55.0,49.2,29.85,ENE,68,0.0,0.0,81,0.00,,,0.00,WUHU216HW,2013-04-12 13:05:00,
2013-04-12 09:06:00,55.0,49.2,29.85,ENE,68,0.0,0.0,81,0.00,,,0.00,WUHU216HW,2013-04-12 13:06:00,
2013-04-12 09:08:00,55.0,49.2,29.85,ENE,68,0.0,0.0,81,0.00,,,0.00,WUHU216HW,2013-04-12 13:08:00,
2013-04-12 09:09:00,55.0,49.2,29.85,ENE,68,0.0,0.0,81,0.00,,,0.00,WUHU216HW,2013-04-12 13:09:00,
2013-04-12 09:11:00,55.2,49.4,29.85,SE,135,0.0,0.0,81,0.00,,,0.00,WUHU216HW,2013-04-12 13:11:00,
2013-04-12 09:12:00,55.2,49.4,29.85,SE,135,0.0,0.0,81,0.00,,,0.00,WUHU216HW,2013-04-12 13:12:00,
2013-04-12 09:13:00,55.2,49.4,29.85,SE,135,0.0,0.0,81,0.00,,,0.00,WUHU216HW,2013-04-12 13:13:00,
2013-04-12 09:15:00,67.8,64.1,29.44,SSE,158,0.4,8.0,88,0.00,,,0.16,WUHU216HW,2013-04-12 13:15:00,
2013-04-12 09:17:00,55.4,49.6,29.85,SE,135,0.0,0.0,81,0.00,,,0.00,WUHU216HW,2013-04-12 13:17:00,
2013-04-12 09:18:00,55.4,49.6,29.85,SE,135,0.0,0.0,81,0.00,,,0.00,WUHU216HW,2013-04-12 13:18:00,
2013-04-12 09:20:00,67.8,64.1,29.43,SSE,158,4.0,9.1,88,0.00,,,0.16,WUHU216HW,2013-04-12 13:20:00,
2013-04-12 09:27:00,68.0,64.2,29.43,SSE,158,4.6,6.0,88,0.00,,,0.16,WUHU216HW,2013-04-12 13:27:00,
2013-04-12 09:32:00,68.1,64.4,29.43,SE,135,0.6,6.0,88,0.00,,,0.16,WUHU216HW,2013-04-12 13:32:00,
2013-04-12 09:34:00,55.5,49.7,29.85,SE,135,0.0,0.0,81,0.00,,,0.00,WUHU216HW,2013-04-12 13:34:00,
2013-04-12 09:35:00,55.5,49.7,29.85,SE,135,0.0,0.0,81,0.00,,,0.00,WUHU216HW,2013-04-12 13:35:00,
2013-04-12 09:36:00,55.5,49.7,29.85,SE,135,0.0,0.0,81,0.00,,,0.00,WUHU216HW,2013-04-12 13:36:00,
2013-04-12 09:37:00,68.3,64.6,29.43,SE,135,1.7,4.6,88,0.00,,,0.16,WUHU216HW,2013-04-12 13:37:00,
2013-04-12 09:38:00,55.5,49.7,29.85,SE,135,0.0,0.0,81,0.00,,,0.00,WUHU216HW,2013-04-12 13:38:00,
2013-04-12 09:39:00,55.5,49.7,29.85,SE,135,0.0,0.0,81,0.00,,,0.00,WUHU216HW,2013-04-12 13:39:00,
2013-04-12 09:40:00,55.5,49.7,29.85,SE,135,0.0,0.0,81,0.00,,,0.00,WUHU216HW,2013-04-12 13:40:00,
2013-04-12 09:41:00,55.5,49.7,29.85,SE,135,0.0,0.0,81,0.00,,,0.00,WUHU216HW,2013-04-12 13:41:00,
2013-04-12 09:42:00,55.5,49.7,29.85,SE,135,0.0,0.0,81,0.00,,,0.00,WUHU216HW,2013-04-12 13:42:00,
2013-04-12 09:43:00,68.5,64.8,29.43,SSW,203,0.0,8.0,88,0.00,,,0.16,WUHU216HW,2013-04-12 13:43:00,
2013-04-12 09:45:00,55.2,49.4,29.85,SE,135,0.0,0.0,81,0.00,,,0.00,WUHU216HW,2013-04-12 13:45:00,
2013-04-12 09:46:00,55.2,49.4,29.85,SE,135,0.0,0.0,81,0.00,,,0.00,WUHU216HW,2013-04-12 13:46:00,
2013-04-12 09:47:00,55.2,49.4,29.85,SE,135,0.0,0.0,81,0.00,,,0.00,WUHU216HW,2013-04-12 13:47:00,
2013-04-12 09:48:00,68.9,64.8,29.43,South,180,5.1,8.0,87,0.00,,,0.16,WUHU216HW,2013-04-12 13:48:00,
2013-04-12 09:49:00,55.2,49.4,29.85,SE,135,0.0,0.0,81,0.00,,,0.00,WUHU216HW,2013-04-12 13:49:00,
2013-04-12 09:53:00,69.4,65.3,29.43,SSE,158,0.0,8.9,87,0.00,,,0.16,WUHU216HW,2013-04-12 13:53:00,
2013-04-12 09:58:00,69.8,65.3,29.43,SSE,158,2.4,8.9,86,0.00,,,0.16,WUHU216HW,2013-04-12 13:58:00,
2013-04-12 09:59:00,55.0,49.5,29.85,SE,135,0.0,0.0,82,0.00,,,0.00,WUHU216HW,2013-04-12 13:59:00,
2013-04-12 10:00:00,55.0,49.5,29.85,SE,135,0.0,0.0,82,0.00,,,0.00,WUHU216HW,2013-04-12 14:00:00,
2013-04-12 10:01:00,55.0,49.5,29.85,SE,135,0.0,0.0,82,0.00,,,0.00,WUHU216HW,2013-04-12 14:01:00,
2013-04-12 10:02:00,54.8,49.4,29.85,SE,135,0.0,0.0,82,0.00,,,0.00,WUHU216HW,2013-04-12 14:02:00,
2013-04-12 10:03:00,70.3,65.9,29.43,SE,135,0.8,7.1,86,0.00,,,0.16,WUHU216HW,2013-04-12 14:03:00,
2013-04-12 10:05:00,54.6,49.2,29.85,SE,135,0.0,0.0,82,0.00,,,0.00,WUHU216HW,2013-04-12 14:05:00,
2013-04-12 10:06:00,54.6,49.2,29.85,SE,135,0.0,0.0,82,0.00,,,0.00,WUHU216HW,2013-04-12 14:06:00,
2013-04-12 10:09:00,70.5,66.0,29.43,SSE,158,4.0,5.8,86,0.00,,,0.16,WUHU216HW,2013-04-12 14:09:00,
2013-04-12 10:10:00,54.6,49.2,29.85,SE,135,0.0,0.0,82,0.00,,,0.00,WUHU216HW,2013-04-12 14:10:00,
2013-04-12 10:12:00,54.6,49.2,29.84,SE,135,0.0,0.0,82,0.00,,,0.00,WUHU216HW,2013-04-12 14:12:00,
2013-04-12 10:13:00,54.5,49.1,29.84,SE,135,0.0,0.0,82,0.00,,,0.00,WUHU216HW,2013-04-12 14:13:00,
2013-04-12 10:32:00,53.7,48.7,29.84,SE,135,0.0,0.0,83,0.00,,,0.00,WUHU216HW,2013-04-12 14:32:00,
2013-04-12 10:34:00,71.2,66.1,29.43,SSW,203,2.4,9.3,84,0.00,,,0.16,WUHU216HW,2013-04-12 14:34:00,
2013-04-12 10:35:00,53.6,48.5,29.84,SE,135,0.0,0.0,83,0.00,,,0.00,WUHU216HW,2013-04-12 14:35:00,
2013-04-12 10:36:00,53.4,48.7,29.84,SE,135,0.0,0.0,84,0.00,,,0.00,WUHU216HW,2013-04-12 14:36:00,
2013-04-12 10:37:00,53.4,48.7,29.84,SE,135,0.0,0.0,84,0.00,,,0.00,WUHU216HW,2013-04-12 14:37:00,
2013-04-12 10:38:00,53.4,48.7,29.84,SE,135,0.0,0.0,84,0.00,,,0.00,WUHU216HW,2013-04-12 14:38:00,
2013-04-12 10:39:00,71.2,66.1,29.43,SSE,158,3.3,7.6,84,0.00,,,0.16,WUHU216HW,2013-04-12 14:39:00,
2013-04-12 10:40:00,53.2,48.5,29.84,SE,135,0.0,0.0,84,0.00,,,0.00,WUHU216HW,2013-04-12 14:40:00,
2013-04-12 10:41:00,53.2,48.5,29.84,SE,135,0.0,0.0,83,0.00,,,0.00,WUHU216HW,2013-04-12 14:41:00,
2013-04-12 10:42:00,53.2,48.5,29.84,SE,135,0.0,0.0,83,0.00,,,0.00,WUHU216HW,2013-04-12 14:42:00,
2013-04-12 10:43:00,53.2,48.5,29.84,SE,135,0.0,0.0,84,0.00,,,0.00,WUHU216HW,2013-04-12 14:43:00,
2013-04-12 10:45:00,71.6,66.4,29.43,South,180,1.1,5.3,84,0.00,,,0.16,WUHU216HW,2013-04-12 14:45:00,
2013-04-12 10:46:00,53.0,48.3,29.84,SE,135,0.0,0.0,84,0.00,,,0.00,WUHU216HW,2013-04-12 14:46:00,
2013-04-12 10:50:00,71.9,66.8,29.43,South,180,3.3,5.3,84,0.00,,,0.16,WUHU216HW,2013-04-12 14:50:00,
2013-04-12 10:55:00,72.6,67.2,29.43,South,180,3.8,6.0,83,0.00,,,0.16,WUHU216HW,2013-04-12 14:55:00,
2013-04-12 11:00:00,72.8,67.0,29.43,SW,225,3.5,6.0,82,0.00,,,0.16,WUHU216HW,2013-04-12 15:00:00,
2013-04-12 11:05:00,73.2,67.4,29.43,SSW,203,0.8,5.5,82,0.00,,,0.16,WUHU216HW,2013-04-12 15:05:00,
2013-04-12 11:12:00,74.3,68.1,29.43,South,180,0.0,5.5,81,0.00,,,0.16,WUHU216HW,2013-04-12 15:12:00,
2013-04-12 11:19:00,74.6,68.1,29.43,South,180,2.4,4.9,80,0.00,,,0.16,WUHU216HW,2013-04-12 15:19:00,
2013-04-12 11:24:00,75.0,68.5,29.43,South,180,0.8,3.3,78,0.00,,,0.16,WUHU216HW,2013-04-12 15:24:00,
2013-04-12 11:29:00,74.4,67.6,29.43,SSE,158,4.6,9.8,79,0.00,,,0.16,WUHU216HW,2013-04-12 15:29:00,
2013-04-12 11:35:00,74.8,67.5,29.43,ESE,113,0.8,10.9,78,0.00,,,0.16,WUHU216HW,2013-04-12 15:35:00,
2013-04-12 11:40:00,74.3,67.8,29.43,SW,225,6.2,10.9,80,0.00,,,0.16,WUHU216HW,2013-04-12 15:40:00,
2013-04-12 11:45:00,74.4,68.0,29.43,SE,135,2.6,6.2,80,0.00,,,0.16,WUHU216HW,2013-04-12 15:45:00,
2013-04-12 11:50:00,75.3,68.0,29.42,South,180,3.5,11.1,78,0.00,,,0.16,WUHU216HW,2013-04-12 15:50:00,
2013-04-12 11:55:00,76.2,68.5,29.41,SSW,203,0.0,11.1,77,0.00,,,0.16,WUHU216HW,2013-04-12 15:55:00,
2013-04-12 12:00:00,76.8,68.2,29.42,West,270,4.2,8.0,75,0.00,,,0.16,WUHU216HW,2013-04-12 16:00:00,
2013-04-12 12:06:00,77.3,68.4,29.42,SSE,158,1.7,8.0,74,0.00,,,0.16,WUHU216HW,2013-04-12 16:06:00,
2013-04-12 12:11:00,77.1,68.2,29.41,SW,225,0.0,1.7,74,0.00,,,0.16,WUHU216HW,2013-04-12 16:11:00,
2013-04-12 12:17:00,76.8,67.9,29.42,ESE,113,0.0,3.1,74,0.00,,,0.16,WUHU216HW,2013-04-12 16:17:00,
2013-04-12 12:22:00,77.5,67.8,29.42,WSW,248,4.6,5.1,72,0.00,,,0.16,WUHU216HW,2013-04-12 16:22:00,
2013-04-12 12:27:00,77.3,67.2,29.41,WSW,248,0.0,5.5,71,0.00,,,0.16,WUHU216HW,2013-04-12 16:27:00,
2013-04-12 12:32:00,77.3,67.2,29.41,SSE,158,0.0,5.5,73,0.00,,,0.16,WUHU216HW,2013-04-12 16:32:00,
2013-04-12 12:37:00,76.8,67.5,29.41,ENE,68,0.0,0.0,73,0.00,,,0.16,WUHU216HW,2013-04-12 16:37:00,
2013-04-12 12:42:00,76.2,66.9,29.41,SW,225,0.0,0.0,73,0.00,,,0.16,WUHU216HW,2013-04-12 16:42:00,
2013-04-12 12:47:00,75.0,67.7,29.41,SW,225,1.3,5.1,78,0.02,,,0.18,WUHU216HW,2013-04-12 16:47:00,
2013-04-12 12:52:00,73.5,67.4,29.42,WSW,248,0.0,5.1,81,0.04,,,0.20,WUHU216HW,2013-04-12 16:52:00,
2013-04-12 12:57:00,72.1,66.6,29.41,South,180,0.0,1.3,83,0.06,,,0.22,WUHU216HW,2013-04-12 16:57:00,
2013-04-12 13:02:00,71.4,66.3,29.41,SSE,158,0.0,0.0,84,0.08,,,0.24,WUHU216HW,2013-04-12 17:02:00,
2013-04-12 13:07:00,71.2,66.4,29.42,South,180,0.0,0.0,85,0.08,,,0.24,WUHU216HW,2013-04-12 17:07:00,
2013-04-12 13:12:00,70.1,65.3,29.42,WSW,248,0.0,0.0,85,0.08,,,0.24,WUHU216HW,2013-04-12 17:12:00,
2013-04-12 13:18:00,70.1,65.3,29.41,SW,225,0.0,0.0,85,0.08,,,0.24,WUHU216HW,2013-04-12 17:18:00,
2013-04-12 13:23:00,69.9,65.2,29.41,SE,135,0.0,0.0,86,0.08,,,0.24,WUHU216HW,2013-04-12 17:23:00,
2013-04-12 13:28:00,70.1,65.7,29.40,SE,135,0.0,0.0,85,0.08,,,0.24,WUHU216HW,2013-04-12 17:28:00,
2013-04-12 13:34:00,70.7,66.2,29.40,SE,135,0.0,0.0,86,0.08,,,0.24,WUHU216HW,2013-04-12 17:34:00,
2013-04-12 15:45:00,77.7,68.3,29.35,West,270,0.0,0.0,74,0.00,,,0.24,WUHU216HW,2013-04-12 19:45:00,
2013-04-12 15:53:00,78.0,67.9,29.35,SE,135,0.6,3.3,72,0.00,,,0.24,WUHU216HW,2013-04-12 19:53:00,
2013-04-12 15:59:00,78.6,68.4,29.35,SSE,158,2.0,3.3,71,0.00,,,0.24,WUHU216HW,2013-04-12 19:59:00,
2013-04-12 16:04:00,78.6,68.4,29.34,SSE,158,0.0,2.0,71,0.00,,,0.24,WUHU216HW,2013-04-12 20:04:00,
2013-04-12 16:09:00,78.4,67.4,29.34,SE,135,0.0,2.6,69,0.00,,,0.24,WUHU216HW,2013-04-12 20:09:00,
2013-04-12 16:15:00,79.1,68.1,29.34,NE,45,0.0,2.6,69,0.00,,,0.24,WUHU216HW,2013-04-12 20:15:00,
2013-04-12 16:20:00,79.5,68.4,29.33,West,270,0.0,0.0,68,0.00,,,0.24,WUHU216HW,2013-04-12 20:20:00,
2013-04-12 16:26:00,79.8,67.4,29.33,SW,225,0.0,0.0,64,0.00,,,0.24,WUHU216HW,2013-04-12 20:26:00,
2013-04-12 16:32:00,79.8,65.2,29.33,SSW,203,0.0,0.0,61,0.00,,,0.24,WUHU216HW,2013-04-12 20:32:00,
2013-04-12 16:37:00,79.7,64.6,29.33,SSE,158,0.0,0.0,60,0.00,,,0.24,WUHU216HW,2013-04-12 20:37:00,
2013-04-12 16:42:00,79.8,64.3,29.33,ESE,113,4.0,4.0,59,0.00,,,0.00,WUHU216HW,2013-04-12 20:42:00,
2013-04-12 16:48:00,80.0,63.4,29.33,SSE,158,3.3,7.8,57,0.00,,,0.00,WUHU216HW,2013-04-12 20:48:00,
2013-04-12 16:53:00,79.8,63.2,29.33,SE,135,0.0,7.8,57,0.00,,,0.00,WUHU216HW,2013-04-12 20:53:00,
2013-04-12 16:58:00,80.2,63.5,29.33,SSE,158,0.0,4.2,57,0.00,,,0.00,WUHU216HW,2013-04-12 20:58:00,
2013-04-12 17:03:00,79.8,63.7,29.33,SW,225,2.6,3.1,58,0.00,,,0.00,WUHU216HW,2013-04-12 21:03:00,
2013-04-12 17:10:00,79.8,63.2,29.33,East,90,2.6,7.8,57,0.00,,,0.00,WUHU216HW,2013-04-12 21:10:00,
2013-04-12 17:18:00,79.8,63.2,29.33,SW,225,1.7,7.1,57,0.00,,,0.00,WUHU216HW,2013-04-12 21:18:00,
2013-04-12 17:23:00,80.2,64.1,29.33,South,180,1.3,7.1,57,0.00,,,0.00,WUHU216HW,2013-04-12 21:23:00,
2013-04-12 17:31:00,80.2,64.1,29.33,SSE,158,0.0,1.3,56,0.00,,,0.00,WUHU216HW,2013-04-12 21:31:00,
2013-04-12 17:37:00,79.8,61.7,29.33,SE,135,3.5,3.5,54,0.00,,,0.00,WUHU216HW,2013-04-12 21:37:00,
2013-04-12 17:42:00,80.0,62.3,29.33,WNW,293,0.0,3.5,55,0.00,,,0.00,WUHU216HW,2013-04-12 21:42:00,
2013-04-12 17:48:00,79.8,61.7,29.33,SW,225,0.0,3.5,54,0.00,,,0.00,WUHU216HW,2013-04-12 21:48:00,
2013-04-12 17:53:00,79.8,61.7,29.33,WSW,248,0.0,0.0,54,0.00,,,0.00,WUHU216HW,2013-04-12 21:53:00,
2013-04-12 17:55:00,57.3,52.8,29.86,SW,225,0.0,0.0,85,0.00,,,0.00,WUHU216HW,2013-04-12 21:55:00,
2013-04-12 17:57:00,57.5,53.0,29.86,SW,225,0.0,0.0,85,0.00,,,0.00,WUHU216HW,2013-04-12 21:57:00,
2013-04-12 17:58:00,57.7,52.9,29.86,South,180,0.0,0.0,84,0.00,,,0.00,WUHU216HW,2013-04-12 21:58:00,
2013-04-12 17:59:00,79.8,61.7,29.33,SSE,158,0.8,3.8,55,0.00,,,0.00,WUHU216HW,2013-04-12 21:59:00,
2013-04-12 18:00:00,57.7,52.9,29.85,South,180,0.0,0.0,84,0.00,,,0.00,WUHU216HW,2013-04-12 22:00:00,
2013-04-12 18:02:00,57.7,52.9,29.85,SSW,203,0.0,0.0,84,0.00,,,0.00,WUHU216HW,2013-04-12 22:02:00,
2013-04-12 18:04:00,79.7,61.0,29.33,SE,135,4.2,4.2,53,0.00,,,0.00,WUHU216HW,2013-04-12 22:04:00,
2013-04-12 18:06:00,58.1,52.9,29.85,SSE,158,0.0,3.8,83,0.00,,,0.00,WUHU216HW,2013-04-12 22:06:00,
2013-04-12 18:09:00,79.5,60.8,29.33,ESE,113,0.0,4.2,53,0.00,,,0.00,WUHU216HW,2013-04-12 22:09:00,
2013-04-12 18:13:00,58.6,53.4,29.85,SE,135,0.0,3.8,83,0.00,,,0.00,WUHU216HW,2013-04-12 22:13:00,
2013-04-12 18:14:00,79.5,60.8,29.32,SSE,158,0.6,5.8,53,0.00,,,0.00,WUHU216HW,2013-04-12 22:14:00,
2013-04-12 18:15:00,58.6,53.4,29.85,SE,135,0.0,1.7,83,0.00,,,0.00,WUHU216HW,2013-04-12 22:15:00,
2013-04-12 18:16:00,58.8,53.6,29.85,ESE,113,0.0,1.7,83,0.00,,,0.00,WUHU216HW,2013-04-12 22:16:00,
2013-04-12 18:17:00,58.8,53.6,29.85,ESE,113,0.0,1.7,83,0.00,,,0.00,WUHU216HW,2013-04-12 22:17:00,
2013-04-12 18:19:00,79.3,60.6,29.32,SSW,203,2.4,5.8,53,0.00,,,0.00,WUHU216HW,2013-04-12 22:19:00,
2013-04-12 18:20:00,59.0,53.8,29.85,ESE,113,0.0,1.3,83,0.00,,,0.00,WUHU216HW,2013-04-12 22:20:00,
2013-04-12 18:21:00,59.0,53.8,29.85,ESE,113,0.0,1.3,83,0.00,,,0.00,WUHU216HW,2013-04-12 22:21:00,
2013-04-12 18:24:00,79.3,60.6,29.32,NE,45,0.0,5.8,54,0.00,,,0.00,WUHU216HW,2013-04-12 22:24:00,
2013-04-12 18:29:00,79.1,61.0,29.33,SSW,203,0.0,2.4,54,0.00,,,0.00,WUHU216HW,2013-04-12 22:29:00,
2013-04-12 18:35:00,78.9,60.8,29.33,ESE,113,2.6,2.6,54,0.00,,,0.00,WUHU216HW,2013-04-12 22:35:00,
2013-04-12 18:40:00,78.9,60.8,29.33,ESE,113,0.0,2.6,55,0.00,,,0.00,WUHU216HW,2013-04-12 22:40:00,
2013-04-12 18:45:00,78.6,61.0,29.34,SE,135,0.0,2.6,56,0.00,,,0.00,WUHU216HW,2013-04-12 22:45:00,
2013-04-12 18:47:00,62.2,55.6,29.85,SSW,203,0.0,0.8,79,0.00,,,0.00,WUHU216HW,2013-04-12 22:47:00,
2013-04-12 18:48:00,62.2,54.8,29.85,SSW,203,4.0,4.0,77,0.00,,,0.00,WUHU216HW,2013-04-12 22:48:00,
2013-04-12 18:49:00,62.2,54.8,29.85,SSW,203,4.0,4.0,77,0.00,,,0.00,WUHU216HW,2013-04-12 22:49:00,
2013-04-12 18:50:00,78.6,61.0,29.34,SE,135,0.0,0.0,55,0.00,,,0.00,WUHU216HW,2013-04-12 22:50:00,
2013-04-12 18:51:00,62.4,55.0,29.85,SSW,203,0.0,4.0,77,0.00,,,0.00,WUHU216HW,2013-04-12 22:51:00,
2013-04-12 18:52:00,62.4,55.0,29.85,SSW,203,0.0,4.0,77,0.00,,,0.00,WUHU216HW,2013-04-12 22:52:00,
2013-04-12 18:55:00,78.4,60.9,29.34,SSE,158,5.8,5.8,55,0.00,,,0.00,WUHU216HW,2013-04-12 22:55:00,
2013-04-12 18:56:00,62.9,54.8,29.85,SE,135,0.0,4.0,75,0.00,,,0.00,WUHU216HW,2013-04-12 22:56:00,
2013-04-12 18:57:00,63.1,55.0,29.84,SW,225,0.0,4.0,75,0.00,,,0.00,WUHU216HW,2013-04-12 22:57:00,
2013-04-12 18:59:00,63.3,54.8,29.85,SSE,158,0.0,4.0,74,0.00,,,0.00,WUHU216HW,2013-04-12 22:59:00,
2013-04-12 19:00:00,63.3,54.8,29.84,SSE,158,0.0,3.3,74,0.00,,,0.00,WUHU216HW,2013-04-12 23:00:00,
2013-04-12 19:01:00,78.4,60.9,29.34,SE,135,0.0,5.8,55,0.00,,,0.00,WUHU216HW,2013-04-12 23:01:00,
2013-04-12 19:06:00,78.0,60.5,29.35,South,180,0.0,5.8,55,0.00,,,0.00,WUHU216HW,2013-04-12 23:06:00,
2013-04-12 19:11:00,77.9,60.3,29.35,SSW,203,0.0,0.0,56,0.00,,,0.00,WUHU216HW,2013-04-12 23:11:00,
2013-04-12 19:16:00,77.7,60.7,29.34,SSW,203,0.0,0.0,55,0.00,,,0.00,WUHU216HW,2013-04-12 23:16:00,
2013-04-12 19:22:00,77.5,60.0,29.34,SSE,158,0.0,0.0,56,0.00,,,0.00,WUHU216HW,2013-04-12 23:22:00,
2013-04-12 19:24:00,64.9,55.7,29.83,ENE,68,0.0,5.1,72,0.00,,,0.00,WUHU216HW,2013-04-12 23:24:00,
2013-04-12 19:27:00,77.3,60.3,29.35,SE,135,0.0,0.0,56,0.00,,,0.00,WUHU216HW,2013-04-12 23:27:00,
2013-04-12 19:28:00,65.1,55.1,29.83,ESE,113,4.2,4.6,70,0.00,,,0.00,WUHU216HW,2013-04-12 23:28:00,
2013-04-12 19:30:00,65.1,55.1,29.83,SE,135,0.0,4.6,70,0.00,,,0.00,WUHU216HW,2013-04-12 23:30:00,
2013-04-12 19:31:00,65.1,55.1,29.83,SE,135,0.0,4.2,70,0.00,,,0.00,WUHU216HW,2013-04-12 23:31:00,
2013-04-12 19:32:00,77.0,60.0,29.35,ESE,113,0.0,0.0,56,0.00,,,0.00,WUHU216HW,2013-04-12 23:32:00,
2013-04-12 19:33:00,65.3,55.6,29.82,South,180,0.0,4.2,71,0.00,,,0.00,WUHU216HW,2013-04-12 23:33:00,
2013-04-12 19:34:00,65.8,56.1,29.82,WSW,248,0.0,4.2,71,0.00,,,0.00,WUHU216HW,2013-04-12 23:34:00,
2013-04-12 19:35:00,65.8,56.1,29.82,WSW,248,0.0,4.2,71,0.00,,,0.00,WUHU216HW,2013-04-12 23:35:00,
2013-04-12 19:36:00,66.0,56.3,29.82,WSW,248,0.0,4.2,71,0.00,,,0.00,WUHU216HW,2013-04-12 23:36:00,
2013-04-12 19:37:00,76.8,60.3,29.35,SE,135,0.0,0.0,57,0.00,,,0.00,WUHU216HW,2013-04-12 23:37:00,
2013-04-12 19:38:00,66.0,56.3,29.82,SSE,158,0.0,4.2,68,0.00,,,0.00,WUHU216HW,2013-04-12 23:38:00,
2013-04-12 19:39:00,66.0,56.3,29.82,SSE,158,0.0,0.0,68,0.00,,,0.00,WUHU216HW,2013-04-12 23:39:00,
2013-04-12 19:40:00,66.0,56.3,29.82,SSE,158,0.0,0.0,69,0.00,,,0.00,WUHU216HW,2013-04-12 23:40:00,
2013-04-12 19:41:00,66.0,56.3,29.82,SSE,158,0.0,0.0,69,0.00,,,0.00,WUHU216HW,2013-04-12 23:41:00,
2013-04-12 19:42:00,76.6,60.2,29.35,SE,135,0.0,0.0,57,0.00,,,0.00,WUHU216HW,2013-04-12 23:42:00,
2013-04-12 19:43:00,66.3,55.8,29.82,ESE,113,0.0,0.0,69,0.00,,,0.00,WUHU216HW,2013-04-12 23:43:00,
2013-04-12 19:44:00,66.3,55.8,29.82,ESE,113,0.0,0.0,69,0.00,,,0.00,WUHU216HW,2013-04-12 23:44:00,
2013-04-12 19:45:00,66.5,56.4,29.82,ESE,113,0.0,0.0,70,0.00,,,0.00,WUHU216HW,2013-04-12 23:45:00,
2013-04-12 19:48:00,76.2,59.9,29.36,SE,135,0.0,0.0,57,0.00,,,0.00,WUHU216HW,2013-04-12 23:48:00,
2013-04-12 19:49:00,66.7,55.8,29.82,South,180,0.0,2.2,68,0.00,,,0.00,WUHU216HW,2013-04-12 23:49:00,
2013-04-12 19:54:00,76.1,59.7,29.35,SE,135,0.0,0.0,57,0.00,,,0.00,WUHU216HW,2013-04-12 23:54:00,
2013-04-12 19:59:00,75.9,59.5,29.35,ESE,113,0.0,0.0,57,0.00,,,0.00,WUHU216HW,2013-04-12 23:59:00,
2013-04-12 20:04:00,75.7,58.9,29.35,SE,135,0.0,0.0,56,0.00,,,0.00,WUHU216HW,2013-04-13 00:04:00,
2013-04-12 20:09:00,75.5,58.7,29.35,SE,135,0.0,0.0,56,0.00,,,0.00,WUHU216HW,2013-04-13 00:09:00,
2013-04-12 20:14:00,75.3,58.5,29.36,SE,135,0.0,0.0,56,0.00,,,0.00,WUHU216HW,2013-04-13 00:14:00,
2013-04-12 20:19:00,75.0,58.7,29.36,SE,135,0.0,0.0,57,0.00,,,0.00,WUHU216HW,2013-04-13 00:19:00,
2013-04-12 20:24:00,74.8,58.5,29.37,SE,135,0.0,0.0,57,0.00,,,0.00,WUHU216HW,2013-04-13 00:24:00,
2013-04-12 20:30:00,74.6,58.3,29.37,SE,135,0.0,0.0,57,0.00,,,0.00,WUHU216HW,2013-04-13 00:30:00,
2013-04-12 20:35:00,74.3,58.5,29.37,SE,135,0.0,0.0,58,0.00,,,0.00,WUHU216HW,2013-04-13 00:35:00,
2013-04-12 20:37:00,69.6,56.4,29.79,WSW,248,0.0,0.0,65,0.00,,,0.00,WUHU216HW,2013-04-13 00:37:00,
2013-04-12 20:38:00,69.8,56.2,29.80,SSE,158,5.8,5.8,62,0.00,,,0.00,WUHU216HW,2013-04-13 00:38:00,
2013-04-12 20:39:00,69.8,56.2,29.80,SSE,158,5.8,5.8,62,0.00,,,0.00,WUHU216HW,2013-04-13 00:39:00,
2013-04-12 20:40:00,74.1,58.3,29.37,SE,135,0.0,0.0,58,0.00,,,0.00,WUHU216HW,2013-04-13 00:40:00,
2013-04-12 20:41:00,69.6,55.6,29.79,SW,225,0.0,5.8,62,0.00,,,0.00,WUHU216HW,2013-04-13 00:41:00,
2013-04-12 20:42:00,69.6,55.6,29.80,SW,225,0.0,5.8,62,0.00,,,0.00,WUHU216HW,2013-04-13 00:42:00,
2013-04-12 20:43:00,69.6,55.6,29.80,SW,225,0.0,5.8,62,0.00,,,0.00,WUHU216HW,2013-04-13 00:43:00,
2013-04-12 20:45:00,73.9,58.1,29.38,SE,135,0.0,0.0,58,0.00,,,0.00,WUHU216HW,2013-04-13 00:45:00,
2013-04-12 20:46:00,69.9,56.3,29.79,ESE,113,0.0,5.8,63,0.00,,,0.00,WUHU216HW,2013-04-13 00:46:00,
2013-04-12 20:47:00,69.9,56.3,29.79,ESE,113,0.0,5.8,63,0.00,,,0.00,WUHU216HW,2013-04-13 00:47:00,
2013-04-12 20:48:00,70.3,56.7,29.79,South,180,0.0,5.8,62,0.00,,,0.00,WUHU216HW,2013-04-13 00:48:00,
2013-04-12 20:49:00,70.3,56.7,29.79,South,180,0.0,5.8,62,0.00,,,0.00,WUHU216HW,2013-04-13 00:49:00,
2013-04-12 20:50:00,73.7,57.9,29.37,SE,135,0.0,0.0,59,0.00,,,0.00,WUHU216HW,2013-04-13 00:50:00,
2013-04-12 20:55:00,73.5,58.3,29.38,SE,135,0.0,0.0,59,0.00,,,0.00,WUHU216HW,2013-04-13 00:55:00,
2013-04-12 20:59:00,70.5,56.4,29.79,ESE,113,0.0,1.7,62,0.00,,,0.00,WUHU216HW,2013-04-13 00:59:00,
2013-04-12 21:00:00,73.2,57.9,29.38,SE,135,0.0,0.0,59,0.00,,,0.00,WUHU216HW,2013-04-13 01:00:00,
2013-04-12 21:01:00,70.7,57.0,29.79,ESE,113,0.0,1.7,62,0.00,,,0.00,WUHU216HW,2013-04-13 01:01:00,
2013-04-12 21:02:00,70.7,57.0,29.78,ESE,113,0.0,1.7,62,0.00,,,0.00,WUHU216HW,2013-04-13 01:02:00,
2013-04-12 21:03:00,71.0,57.3,29.78,SW,225,0.0,1.7,62,0.00,,,0.00,WUHU216HW,2013-04-13 01:03:00,
2013-04-12 21:04:00,71.0,57.3,29.79,SW,225,0.0,1.7,62,0.00,,,0.00,WUHU216HW,2013-04-13 01:04:00,
2013-04-12 21:05:00,73.0,57.8,29.39,SE,135,0.0,0.0,59,0.00,,,0.00,WUHU216HW,2013-04-13 01:05:00,
2013-04-12 21:06:00,71.2,57.1,29.78,SSW,203,0.0,0.0,61,0.00,,,0.00,WUHU216HW,2013-04-13 01:06:00,
2013-04-12 21:07:00,71.2,57.1,29.78,WSW,248,0.0,0.0,60,0.00,,,0.00,WUHU216HW,2013-04-13 01:07:00,
2013-04-12 21:08:00,71.2,57.1,29.78,WSW,248,0.0,0.0,60,0.00,,,0.00,WUHU216HW,2013-04-13 01:08:00,
2013-04-12 21:10:00,73.0,57.8,29.39,SE,135,0.0,0.0,59,0.00,,,0.00,WUHU216HW,2013-04-13 01:10:00,
2013-04-12 21:11:00,71.4,56.8,29.79,SSW,203,0.0,0.0,59,0.00,,,0.00,WUHU216HW,2013-04-13 01:11:00,
2013-04-12 21:12:00,71.4,56.8,29.78,SSW,203,0.0,0.0,59,0.00,,,0.00,WUHU216HW,2013-04-13 01:12:00,
2013-04-12 21:13:00,71.4,56.8,29.78,SSW,203,0.0,0.0,59,0.00,,,0.00,WUHU216HW,2013-04-13 01:13:00,
2013-04-12 21:14:00,71.2,56.6,29.78,SE,135,0.0,0.0,60,0.00,,,0.00,WUHU216HW,2013-04-13 01:14:00,
2013-04-12 21:15:00,73.0,57.8,29.39,SE,135,0.0,0.0,59,0.00,,,0.00,WUHU216HW,2013-04-13 01:15:00,
2013-04-12 21:21:00,72.6,57.9,29.40,SE,135,0.0,0.0,60,0.00,,,0.00,WUHU216HW,2013-04-13 01:21:00,
2013-04-12 21:26:00,72.3,57.6,29.40,SE,135,0.0,0.0,60,0.00,,,0.00,WUHU216HW,2013-04-13 01:26:00,
2013-04-12 21:31:00,71.9,57.7,29.40,SE,135,0.0,0.0,61,0.00,,,0.00,WUHU216HW,2013-04-13 01:31:00,
2013-04-12 21:36:00,71.7,57.6,29.40,SE,135,0.0,0.0,62,0.00,,,0.00,WUHU216HW,2013-04-13 01:36:00,
2013-04-12 21:41:00,71.2,57.1,29.41,West,270,0.0,0.0,61,0.00,,,0.00,WUHU216HW,2013-04-13 01:41:00,
2013-04-12 21:46:00,70.8,57.2,29.41,West,270,0.0,0.0,62,0.00,,,0.00,WUHU216HW,2013-04-13 01:46:00,
2013-04-12 21:52:00,70.5,56.8,29.41,West,270,0.0,0.0,62,0.00,,,0.00,WUHU216HW,2013-04-13 01:52:00,
2013-04-12 21:58:00,70.5,56.8,29.41,West,270,0.0,0.0,62,0.00,,,0.00,WUHU216HW,2013-04-13 01:58:00,
2013-04-12 22:03:00,70.3,56.3,29.41,West,270,0.0,0.0,61,0.00,,,0.00,WUHU216HW,2013-04-13 02:03:00,
2013-04-12 22:09:00,69.9,56.3,29.42,West,270,0.0,0.0,62,0.00,,,0.00,WUHU216HW,2013-04-13 02:09:00,
2013-04-12 22:15:00,69.9,56.3,29.42,West,270,0.0,0.0,62,0.00,,,0.00,WUHU216HW,2013-04-13 02:15:00,
2013-04-12 22:20:00,69.6,56.0,29.42,West,270,0.0,0.0,63,0.00,,,0.00,WUHU216HW,2013-04-13 02:20:00,
2013-04-12 22:27:00,69.2,56.5,29.42,West,270,0.0,0.0,64,0.00,,,0.00,WUHU216HW,2013-04-13 02:27:00,
2013-04-12 22:32:00,68.7,56.0,29.43,West,270,0.0,0.0,64,0.00,,,0.00,WUHU216HW,2013-04-13 02:32:00,
2013-04-12 22:38:00,68.5,55.8,29.42,West,270,0.0,0.0,63,0.00,,,0.00,WUHU216HW,2013-04-13 02:38:00,
2013-04-12 22:43:00,68.5,55.8,29.43,West,270,0.0,0.0,63,0.00,,,0.00,WUHU216HW,2013-04-13 02:43:00,
2013-04-12 22:48:00,68.3,55.2,29.43,West,270,0.0,0.0,64,0.00,,,0.00,WUHU216HW,2013-04-13 02:48:00,
2013-04-12 22:54:00,68.0,55.7,29.43,West,270,0.0,0.0,65,0.00,,,0.00,WUHU216HW,2013-04-13 02:54:00,
2013-04-12 22:59:00,67.4,56.1,29.43,West,270,0.0,0.0,67,0.00,,,0.00,WUHU216HW,2013-04-13 02:59:00,
2013-04-12 23:00:00,74.8,57.5,29.76,ENE,68,0.0,3.3,55,0.00,,,0.00,WUHU216HW,2013-04-13 03:00:00,
2013-04-12 23:01:00,74.8,57.5,29.76,ESE,113,0.0,3.3,54,0.00,,,0.00,WUHU216HW,2013-04-13 03:01:00,
2013-04-12 23:02:00,74.8,57.5,29.76,ESE,113,0.0,3.3,54,0.00,,,0.00,WUHU216HW,2013-04-13 03:02:00,
2013-04-12 23:03:00,74.8,57.5,29.75,ESE,113,0.0,0.0,54,0.00,,,0.00,WUHU216HW,2013-04-13 03:03:00,
2013-04-12 23:04:00,66.9,55.5,29.44,West,270,0.0,0.0,67,0.00,,,0.00,WUHU216HW,2013-04-13 03:04:00,
2013-04-12 23:05:00,74.4,56.1,29.76,SW,225,3.3,6.0,53,0.00,,,0.00,WUHU216HW,2013-04-13 03:05:00,
2013-04-12 23:07:00,74.3,56.5,29.76,SE,135,0.0,6.0,54,0.00,,,0.00,WUHU216HW,2013-04-13 03:07:00,
2013-04-12 23:09:00,73.9,56.6,29.76,South,180,0.0,6.0,55,0.00,,,0.00,WUHU216HW,2013-04-13 03:09:00,
2013-04-12 23:10:00,66.7,55.4,29.45,West,270,0.0,0.0,67,0.00,,,0.00,WUHU216HW,2013-04-13 03:10:00,
2013-04-12 23:11:00,74.1,56.8,29.76,East,90,0.0,6.0,55,0.00,,,0.00,WUHU216HW,2013-04-13 03:11:00,
2013-04-12 23:12:00,74.1,56.8,29.76,East,90,0.0,6.0,55,0.00,,,0.00,WUHU216HW,2013-04-13 03:12:00,
2013-04-12 23:14:00,74.4,57.7,29.76,ENE,68,0.0,3.3,56,0.00,,,0.00,WUHU216HW,2013-04-13 03:14:00,
2013-04-12 23:15:00,74.6,57.3,29.76,SW,225,0.0,3.3,55,0.00,,,0.00,WUHU216HW,2013-04-13 03:15:00,
2013-04-12 23:16:00,66.3,54.6,29.45,WNW,293,0.0,0.0,66,0.00,,,0.00,WUHU216HW,2013-04-13 03:16:00,
2013-04-12 23:32:00,66.0,53.8,29.46,WNW,293,0.0,0.0,66,0.00,,,0.00,WUHU216HW,2013-04-13 03:32:00,
2013-04-12 23:37:00,65.8,54.1,29.46,WNW,293,0.0,0.0,66,0.00,,,0.00,WUHU216HW,2013-04-13 03:37:00,
2013-04-12 23:42:00,65.4,53.7,29.47,WNW,293,0.0,0.0,66,0.00,,,0.00,WUHU216HW,2013-04-13 03:42:00,
2013-04-12 23:48:00,65.4,53.7,29.47,WNW,293,0.0,0.0,65,0.00,,,0.00,WUHU216HW,2013-04-13 03:48:00,
2013-04-12 23:53:00,65.1,53.0,29.48,WNW,293,0.0,0.0,65,0.00,,,0.00,WUHU216HW,2013-04-13 03:53:00,
2013-04-12 23:58:00,65.1,53.0,29.48,WNW,293,0.0,0.0,65,0.00,,,0.00,WUHU216HW,2013-04-13 03:58:00,